User: anonymous   Login
Location: Gugi
(45.4667°N, 11.1000°E)
Time: 08:03:34
(UTC+00:00)
Language:

Cosmos 1634 Rocket - Orbit

View from above orbital plane
View from above orbital plane
View from above satellite
View from above satellite

Ground track
Ground track

The orbit data is extracted from the following two-line orbital elements,

1 15598U 85022B   20025.80562458  .00000035  00000-0  20592-4 0  9992
2 15598  82.9384 119.0307 0021154 327.8434 147.2238 13.76590007751524
Epoch (UTC): 25 January 2020 19:20:05
Eccentricity: 0.0021154
inclination: 82.9384°
perigee height: 960 km
apogee height: 991 km
right ascension of ascending node: 119.0307°
argument of perigee: 327.8434°
revolutions per day: 13.76590007
mean anomaly at epoch: 147.2238°
orbit number at epoch: 75152

The dashed part of the orbit path shows where the satellite is in the earth's shadow,  

DLR